Home   Weather   Gräfelfing   Past weeks
Flag for Germany

Past Weather in Gräfelfing, Bavaria, Germany — Yesterday and Last 2 Weeks

Now
45 °F

Dense fog.


Feels Like: 45 °F
Forecast: 66 / 44 °F
Wind: 2 mph from North

Location: Oberpfaffenhofen

Current Time: Oct 24, 2019 at 12:05:06 am

Latest Report: Oct 23, 2019 at 11:20 pm


Visibility: 1 mi

Pressure: 29.89 "Hg (27.98 "Hg at 541m altitude)

Humidity: 100%

Dew Point: 45 °F

Location of GräfelfingLocation

Past Weather in Gräfelfing — Graph

°F

Gräfelfing Temperature Yesterday

Maximum temperature yesterday: 61 °F (at 2:20 pm)
Minimum temperature yesterday: 45 °F (at 10:50 pm)
Average temperature yesterday: 53 °F

High & Low Weather Summary for the Past Weeks

 TemperatureHumidityPressure
High75 °F (Oct 13, 2:50 pm)100% (Oct 9, 4:50 am)30.24 "Hg (Oct 9, 4:50 am)
Low39 °F (Oct 11, 6:20 am)36% (Oct 15, 2:50 pm)29.68 "Hg (Oct 15, 4:50 pm)
Average54 °F80%30.01 "Hg
* Reported Oct 8 10:20 pm — Oct 23 10:50 pm, Gräfelfing. Weather by CustomWeather, © 2019

Note: Actual official high and low records may vary slightly from our data, if they occured in-between our weather recording intervals... More about our weather records

Advertising

Gräfelfing Weather History for the Previous 24 Hours

Scroll right to see more
 ConditionsComfort  
Time TempWeatherWind HumidityBarometerVisibility
10:50 pm
Wed, Oct 23
45 °FClear.2 mph93%29.92 "Hg0 mi
10:20 pm46 °FClear.3 mph100%29.92 "Hg1 mi
9:50 pm50 °FClear.6 mph100%29.92 "Hg3 mi
9:20 pm50 °FPassing clouds.8 mph100%29.92 "Hg4 mi
8:50 pm50 °FPassing clouds.3 mph100%29.95 "Hg3 mi
8:20 pm50 °FPassing clouds.6 mph94%29.95 "Hg3 mi
7:50 pm50 °FClear.3 mph100%29.95 "Hg4 mi
7:20 pm50 °FFog.5 mph94%29.95 "Hg3 mi
6:50 pm50 °FClear.6 mph100%29.95 "Hg4 mi
6:20 pm52 °FClear.6 mph94%29.95 "Hg6 mi
5:50 pm54 °FSunny.8 mph88%29.95 "Hg10 mi
5:20 pm57 °FSunny.8 mph82%29.95 "Hg10 mi
4:50 pm59 °FSunny.9 mph77%29.95 "Hg10 mi
4:20 pm61 °FSunny.9 mph77%29.98 "Hg10 mi
3:50 pm61 °FSunny.9 mph72%29.98 "Hg10 mi
3:20 pm61 °FSunny.8 mph72%29.98 "Hg10 mi
2:50 pm61 °FSunny.8 mph72%29.98 "Hg10 mi
2:20 pm61 °FSunny.9 mph72%30.01 "Hg10 mi
1:50 pm59 °FSunny.7 mph72%30.01 "Hg10 mi
1:20 pm57 °FSunny.9 mph77%30.01 "Hg10 mi
12:50 pm57 °FPassing clouds.8 mph82%30.04 "HgN/A
12:20 pm55 °FScattered clouds.7 mph82%30.04 "HgN/A
11:50 am54 °FPartly sunny.8 mph88%30.04 "Hg4 mi
11:20 am52 °FPartly sunny.6 mph94%30.07 "Hg4 mi
10:50 am52 °FFog.6 mph94%30.07 "Hg2 mi
10:20 am50 °FFog.6 mph100%30.07 "Hg1 mi
9:50 am50 °FFog.5 mph100%30.07 "Hg1 mi
9:20 am50 °FFog.5 mph100%30.07 "Hg1 mi
8:50 am50 °FFog.7 mph100%30.07 "Hg1 mi
8:20 am50 °FFog.6 mph100%30.07 "Hg1 mi
7:50 am50 °FFog.6 mph100%30.07 "Hg1 mi
7:20 am50 °FFog.6 mph100%30.07 "Hg1 mi
6:50 am50 °FFog.7 mph100%30.07 "Hg1 mi
6:20 am50 °FMostly cloudy.7 mph100%30.09 "Hg1 mi
5:50 am50 °FDense fog.5 mph100%30.09 "Hg1 mi
5:20 am50 °FDense fog.7 mph100%30.09 "Hg1 mi
4:50 am50 °FDense fog.7 mph100%30.09 "Hg1 mi
4:20 am50 °FLow clouds.7 mph100%30.09 "Hg2 mi
3:50 am52 °FLow clouds.6 mph94%30.09 "Hg2 mi
3:20 am52 °FLow clouds.5 mph100%30.12 "Hg2 mi
2:50 am52 °FLow clouds.3 mph100%30.12 "Hg2 mi
2:20 am52 °FLow clouds.5 mph100%30.15 "Hg2 mi
1:50 am52 °FLow clouds.3 mph100%30.15 "Hg1 mi
1:20 am52 °FLow clouds.3 mph94%30.15 "Hg1 mi
12:50 am52 °FLow clouds.2 mph94%30.18 "Hg1 mi
12:20 am52 °FLow clouds.2 mph94%30.18 "Hg2 mi
Weather by CustomWeather, © 2019

See weather overview